sat.trackr.live / text

‹ back to catalog

STARLINK-35128

NORAD 65628 · 2025-210G

PAYLOAD ACTIVE UNKNOWN

§ Identity

Operator
Country
US
Launch date
2025-09-18
Launch site
AFETR
Launch vehicle
Mass (kg)
RCS (m²)

Purposes: comms

External: N2YO · Heavens-Above · Gunter

§ Orbital elements

Epoch: 2026-09-20T07:55:58.346688Z

Period
93.85 min
Inclination
53.1593°
Eccentricity
0.0001385
Mean motion
15.34395496 rev/d
Perigee alt
461.8 km
Apogee alt
463.7 km
Semi-major
6,840.9 km
B*
6.7970e-4
RAAN
118.5887°
Arg perigee
73.5687°
Mean anomaly
286.5468°
Rev number
5,759

§ Raw data

STARLINK-351281 65628U 25210G   26263.33053642  .00022655  00000+0  67970-3 0  99932 65628  53.1593 118.5887 0001385  73.5687 286.5468 15.34395496 57590

JSON: /api/v1/satellites/65628 · /tle

For live sub-satellite position, see the globe view (requires WebGL).

§ Visibility from observer

Set your observer location to see the next 7 days of passes ≥ 10°. The values pass through the URL so the page stays shareable.

No JS? Fill the form by hand. The geolocation button needs JavaScript.